Regional Weather Roundup
Issued by NWS

Home | Current Version | Previous Version | Text Only | Print | Product List | Glossary On
Versions: 1 2 3 4 5 6 7 8 9 10 11 12 13 14 15 16 17 18 19 20 21 22 23 24 25 26 27 28 29 30 31 32 33 34 35 36 37 38 39 40 41 42 43 44 45 46 47 48 49 50
000
ASUS43 KIND 211909
RWRIN

WEATHER ROUNDUP FOR INDIANA
NATIONAL WEATHER SERVICE INDIANAPOLIS IN
300 PM EDT TUE OCT 21 2014

NOTE: "FAIR" INDICATES FEW OR NO CLOUDS BELOW 12,000 FEET WITH NO
SIGNIFICANT WEATHER AND/OR OBSTRUCTIONS TO VISIBILITY.

* - STATION DOES NOT REPORT WEATHER SUCH AS PRECIPITATION OR FOG.

+ - STATION NOT QUALITY CONTROLLED BY THE NATIONAL WEATHER SERVICE.
    USE DATA WITH CAUTION...ESPECIALLY DEWPOINT AND RELATIVE
    HUMIDITY OBSERVATIONS.

INZ001>003-010>013-019-020-212000-
NORTHWEST INDIANA

CITY           SKY/WX    TMP DP  RH WIND       PRES   REMARKS
GARY /AIRPORT/ CLOUDY    52  43  71 N12G23    30.17R
KNOX *+        CLOUDY    51  44  75 N15       30.12S
LA PORTE +     CLOUDY    53  44  70 N12       30.14S
MICHIGAN CITY+ MOSUNNY   54  37  54 N18G25    30.14S
MONTICELLO +   CLOUDY    55  44  67 N12       30.11S
RENSSELAER +   CLOUDY    54  46  76 NW8       30.13F
VALPARAISO     CLOUDY    53  40  61 N10G17    30.14S

$$

LMZ046-743>745-212000-
SOUTHERN LAKE MICHIGAN

STATION/POSITION TIME  TEMP WIND        PRES
                       AIR  DIR/SP/G
                 (UTC) (F)  (DEG/KT/KT) (MB)
MICHIGAN CITY    1900   51  350/ 23/ 25   N/A

$$

INZ004-005-014>016-021>024-212000-
NORTH CENTRAL INDIANA

CITY           SKY/WX    TMP DP  RH WIND       PRES   REMARKS
ELKHART        CLOUDY    50  41  71 N8        30.12S
GOSHEN         CLOUDY    51  43  74 N13       30.10F
LOGANSPORT +   PTSUNNY   54  41  62 N10       30.11S
PERU/GRISSOM   PTSUNNY   55  45  69 N12G20    30.08F
ROCHESTER +    PTSUNNY   55  43  62 N8        30.10S
SOUTH BEND     CLOUDY    53  41  63 N13       30.13S
WARSAW +       CLOUDY    52  45  76 N9        30.10S

$$

INZ006>009-017-018-025>027-212000-
NORTHEAST INDIANA

CITY           SKY/WX    TMP DP  RH WIND       PRES   REMARKS
ANGOLA *+      CLOUDY    48  34  57 N9        30.09S
AUBURN +       CLOUDY    50  39  66 N14G20    30.10R
FORT WAYNE     CLOUDY    52  43  71 N9        30.09S
HUNTINGTON +   CLOUDY    51  44  76 N10       30.09S

$$

INZ028-029-035-036-043>045-051>053-212000-
WEST CENTRAL INDIANA

CITY           SKY/WX    TMP DP  RH WIND       PRES   REMARKS
GREENCASTLE +  CLOUDY    54  39  58 N10       30.11S
LAFAYETTE      CLOUDY    53  43  68 NW9       30.12R
TERRE HAUTE    PTSUNNY   59  39  47 N12G18    30.11F

$$

INZ030>032-037>040-046>048-054>057-064-065-212000-
CENTRAL INDIANA

CITY           SKY/WX    TMP DP  RH WIND       PRES   REMARKS
ANDERSON       PTSUNNY   54  41  62 N17G29    30.08S
CP ATTERBURY + CLOUDY    55  41  58 N10G17    30.08F
COLUMBUS       CLOUDY    55  43  62 NW13      30.08S
FRANKFORT +    CLOUDY    55  43  64 NW10G16   30.11S
GREENWOOD *+   CLOUDY    55  37  50 N10G17    30.08
INDIANAPOLIS   PTSUNNY   55  40  56 N10       30.08S
-EAGLE CREEK   PTSUNNY   55  39  54 N10       30.08S
KOKOMO *+      CLOUDY    55  43  62 N13       30.09S
MARION +       CLOUDY    55  40  58 N8G16     30.09S
MT COMFORT *+  CLOUDY    54  34  47 N13       30.08S
SHELBYVILLE    CLOUDY    57  40  52 NW14      30.06F
ZIONSVILLE +   PTSUNNY   55  39  54 N12G18    30.09S

$$

INZ033-034-041-042-049-050-058-059-212000-
EAST CENTRAL INDIANA

CITY           SKY/WX    TMP DP  RH WIND       PRES   REMARKS
MUNCIE         CLOUDY    53  42  66 N14       30.07S

$$

INZ060-061-067>069-081>083-085>088-212000-
SOUTHWEST INDIANA

CITY           SKY/WX    TMP DP  RH WIND       PRES   REMARKS
EVANSVILLE     PTSUNNY   62  44  51 N9        30.08F
HUNTINGBURG *+ PTSUNNY   61  45  55 N8        30.09S
WASHINGTON +   PTSUNNY   61  42  49 N12       30.08S

$$

INZ062-063-066-070>080-084-089>092-212000-
SOUTH CENTRAL AND SOUTHEAST INDIANA

CITY           SKY/WX    TMP DP  RH WIND       PRES   REMARKS
BLOOMINGTON    CLOUDY    56  40  55 N8        30.09F
NORTH VERNON + CLOUDY    55  39  54 NW15      30.08

$$




USA.gov is the U.S. government's official web portal to all federal, state and local government web resources and services.